LNI371 WIDD-WIII

Flight info

Callsign LNI371
Flight time 1h 24m
Altitude 33000
Route ANITO B470 BUNIK
Aircraft B738/M-SDE2E3FGHIRWXY/LB1

Departure

Time 2026-04-15 20:03
Airport Hang Nadim International Airport (WIDD)

Arrival

Time 2026-04-15 21:28
Airport Soekarno-Hatta International Airport (WIII)
Time Latitude Longitude Altitude Speed Heading
2026-04-15 19:41 1.12463 104.11784 85 ft 0 kts 312°
2026-04-15 19:58 1.12464 104.11783 79 ft 0 kts 312°
2026-04-15 19:58 1.12467 104.11783 83 ft 1 kts 348°
2026-04-15 19:59 1.12464 104.11795 83 ft 3 kts 140°
2026-04-15 19:59 1.12408 104.11823 83 ft 14 kts 171°
2026-04-15 19:59 1.12274 104.11822 81 ft 24 kts 186°
2026-04-15 19:59 1.12141 104.11704 85 ft 29 kts 224°
2026-04-15 20:00 1.11997 104.11586 86 ft 23 kts 233°
2026-04-15 20:00 1.11877 104.11465 88 ft 26 kts 222°
2026-04-15 20:00 1.11734 104.11345 91 ft 28 kts 219°
2026-04-15 20:00 1.11596 104.11209 95 ft 27 kts 223°
2026-04-15 20:01 1.11502 104.11135 97 ft 26 kts 218°
2026-04-15 20:01 1.11356 104.11018 99 ft 28 kts 219°
2026-04-15 20:01 1.11214 104.10889 102 ft 28 kts 224°
2026-04-15 20:01 1.11069 104.10752 105 ft 29 kts 219°
2026-04-15 20:02 1.10920 104.10627 107 ft 27 kts 220°
2026-04-15 20:02 1.10784 104.10633 107 ft 17 kts 125°
2026-04-15 20:02 1.10773 104.10720 105 ft 9 kts 43°
2026-04-15 20:02 1.10779 104.10725 105 ft 0 kts 40°
2026-04-15 20:03 1.10825 104.10765 105 ft 37 kts 41°
2026-04-15 20:03 1.11223 104.11115 100 ft 114 kts 41°
2026-04-15 20:03 1.11991 104.11784 105 ft 175 kts 41°
2026-04-15 20:03 1.12941 104.12639 739 ft 188 kts 43°
2026-04-15 20:04 1.13935 104.13529 1466 ft 193 kts 43°
2026-04-15 20:04 1.14927 104.14400 2323 ft 196 kts 43°
2026-04-15 20:04 1.16031 104.15363 2603 ft 224 kts 43°
2026-04-15 20:04 1.17268 104.16437 2833 ft 245 kts 42°
2026-04-15 20:05 1.18577 104.17570 3312 ft 252 kts 42°
2026-04-15 20:05 1.19918 104.18727 3861 ft 257 kts 42°
2026-04-15 20:05 1.21106 104.20059 4404 ft 260 kts 65°
2026-04-15 20:05 1.21527 104.21846 4737 ft 271 kts 95°
2026-04-15 20:06 1.21093 104.23692 5346 ft 276 kts 116°
2026-04-15 20:06 1.20115 104.25341 5816 ft 276 kts 127°
2026-04-15 20:06 1.18971 104.26891 6009 ft 278 kts 129°
2026-04-15 20:06 1.17809 104.28450 5999 ft 279 kts 128°
2026-04-15 20:07 1.16666 104.30010 5996 ft 276 kts 128°
2026-04-15 20:07 1.15554 104.31540 5997 ft 274 kts 128°
2026-04-15 20:07 1.14440 104.33079 6002 ft 273 kts 128°
2026-04-15 20:07 1.13332 104.34613 6009 ft 272 kts 128°
2026-04-15 20:08 1.12225 104.36149 6013 ft 273 kts 128°
2026-04-15 20:08 1.11116 104.37689 6010 ft 273 kts 128°
2026-04-15 20:08 1.09963 104.39207 6078 ft 277 kts 131°
2026-04-15 20:08 1.08699 104.40699 6666 ft 281 kts 133°
2026-04-15 20:09 1.07425 104.42185 7449 ft 282 kts 132°
2026-04-15 20:09 1.06147 104.43690 8196 ft 286 kts 131°
2026-04-15 20:09 1.04855 104.45219 8916 ft 290 kts 131°
2026-04-15 20:09 1.03546 104.46773 9622 ft 295 kts 131°
2026-04-15 20:10 1.02108 104.48228 9909 ft 295 kts 148°
2026-04-15 20:10 1.00234 104.49041 10000 ft 297 kts 163°
2026-04-15 20:10 0.98249 104.49614 9994 ft 295 kts 165°
2026-04-15 20:10 0.96271 104.50145 9995 ft 294 kts 166°
2026-04-15 20:11 0.94299 104.50674 9994 ft 293 kts 166°
2026-04-15 20:11 0.92361 104.51200 9997 ft 292 kts 165°
2026-04-15 20:11 0.90377 104.51744 9998 ft 292 kts 165°
2026-04-15 20:11 0.88448 104.52280 9999 ft 292 kts 165°
2026-04-15 20:12 0.86494 104.52825 9998 ft 292 kts 165°
2026-04-15 20:12 0.84537 104.53373 10003 ft 293 kts 165°
2026-04-15 20:12 0.82571 104.53924 10003 ft 293 kts 165°
2026-04-15 20:12 0.80606 104.54476 10003 ft 294 kts 165°
2026-04-15 20:13 0.78632 104.55031 10000 ft 295 kts 165°
2026-04-15 20:13 0.76655 104.55586 10000 ft 295 kts 165°
2026-04-15 20:13 0.74674 104.56143 10002 ft 295 kts 165°
2026-04-15 20:13 0.72695 104.56699 9996 ft 296 kts 165°
2026-04-15 20:14 0.70721 104.57268 9998 ft 296 kts 164°
2026-04-15 20:14 0.68743 104.57853 10000 ft 296 kts 164°
2026-04-15 20:14 0.66767 104.58440 10000 ft 296 kts 164°
2026-04-15 20:14 0.64791 104.59028 9998 ft 296 kts 164°
2026-04-15 20:15 0.62818 104.59615 9997 ft 296 kts 164°
2026-04-15 20:15 0.60843 104.60203 9999 ft 296 kts 164°
2026-04-15 20:15 0.58872 104.60791 9995 ft 296 kts 164°
2026-04-15 20:15 0.56900 104.61380 9997 ft 295 kts 164°
2026-04-15 20:16 0.54932 104.61967 9988 ft 295 kts 164°
2026-04-15 20:16 0.52964 104.62552 9992 ft 295 kts 164°
2026-04-15 20:16 0.50996 104.63137 9992 ft 295 kts 164°
2026-04-15 20:16 0.49057 104.63713 9992 ft 295 kts 164°
2026-04-15 20:17 0.47089 104.64299 9993 ft 294 kts 164°
2026-04-15 20:17 0.45095 104.64890 10052 ft 306 kts 164°
2026-04-15 20:17 0.42975 104.65518 10217 ft 328 kts 164°
2026-04-15 20:17 0.40714 104.66186 10373 ft 349 kts 164°
2026-04-15 20:18 0.38324 104.66893 10614 ft 365 kts 164°
2026-04-15 20:18 0.35865 104.67620 11111 ft 371 kts 164°
2026-04-15 20:18 0.33374 104.68357 11720 ft 374 kts 164°
2026-04-15 20:18 0.30872 104.69098 12293 ft 377 kts 164°
2026-04-15 20:19 0.28373 104.69839 12838 ft 381 kts 164°
2026-04-15 20:19 0.25814 104.70597 13391 ft 385 kts 163°
2026-04-15 20:19 0.23228 104.71362 13912 ft 389 kts 163°
2026-04-15 20:19 0.20625 104.72135 14426 ft 391 kts 163°
2026-04-15 20:20 0.18006 104.72913 14938 ft 394 kts 163°
2026-04-15 20:20 0.15374 104.73693 15443 ft 396 kts 163°
2026-04-15 20:20 0.12720 104.74481 15936 ft 399 kts 163°
2026-04-15 20:20 0.10048 104.75278 16430 ft 402 kts 163°
2026-04-15 20:21 0.07364 104.76079 16896 ft 404 kts 163°
2026-04-15 20:21 0.04658 104.76887 17363 ft 407 kts 163°
2026-04-15 20:21 0.01928 104.77702 17839 ft 410 kts 163°
2026-04-15 20:21 -0.00776 104.78508 18270 ft 412 kts 163°
2026-04-15 20:22 -0.03527 104.79327 18679 ft 414 kts 163°
2026-04-15 20:22 -0.06299 104.80153 19063 ft 416 kts 163°
2026-04-15 20:22 -0.09080 104.80981 19449 ft 419 kts 163°
2026-04-15 20:22 -0.11882 104.81814 19808 ft 421 kts 163°
2026-04-15 20:23 -0.14699 104.82648 20200 ft 423 kts 163°
2026-04-15 20:23 -0.17530 104.83488 20565 ft 425 kts 163°
2026-04-15 20:23 -0.20375 104.84336 20890 ft 429 kts 163°
2026-04-15 20:23 -0.23244 104.85192 21242 ft 431 kts 163°
2026-04-15 20:24 -0.26124 104.86051 21576 ft 433 kts 163°
2026-04-15 20:24 -0.31535 104.88690 22231 ft 437 kts 145°
2026-04-15 20:24 -0.34042 104.90431 22576 ft 439 kts 145°
2026-04-15 20:25 -0.36553 104.92182 22878 ft 442 kts 145°
2026-04-15 20:25 -0.39087 104.93939 23191 ft 444 kts 145°
2026-04-15 20:25 -0.41596 104.95664 23500 ft 445 kts 145°
2026-04-15 20:25 -0.44161 104.97415 23764 ft 446 kts 145°
2026-04-15 20:26 -0.46732 104.99162 24036 ft 447 kts 145°
2026-04-15 20:26 -0.49310 105.00908 24308 ft 448 kts 145°
2026-04-15 20:26 -0.51899 105.02659 24568 ft 450 kts 145°
2026-04-15 20:26 -0.54496 105.04414 24823 ft 451 kts 145°
2026-04-15 20:27 -0.57099 105.06174 25108 ft 451 kts 145°
2026-04-15 20:27 -0.59697 105.07929 25379 ft 452 kts 145°
2026-04-15 20:27 -0.62309 105.09696 25592 ft 454 kts 145°
2026-04-15 20:27 -0.64933 105.11471 25800 ft 456 kts 145°
2026-04-15 20:28 -0.67561 105.13248 26022 ft 457 kts 145°
2026-04-15 20:28 -0.70203 105.15035 26252 ft 458 kts 145°
2026-04-15 20:28 -0.72845 105.16822 26478 ft 459 kts 145°
2026-04-15 20:28 -0.75493 105.18614 26724 ft 460 kts 145°
2026-04-15 20:29 -0.78110 105.20384 26967 ft 460 kts 145°
2026-04-15 20:29 -0.80765 105.22180 27154 ft 462 kts 145°
2026-04-15 20:29 -0.83431 105.23983 27345 ft 464 kts 145°
2026-04-15 20:29 -0.86106 105.25794 27539 ft 465 kts 145°
2026-04-15 20:30 -0.88789 105.27608 27734 ft 466 kts 145°
2026-04-15 20:30 -0.91480 105.29429 27925 ft 467 kts 145°
2026-04-15 20:30 -0.94177 105.31254 28084 ft 469 kts 145°
2026-04-15 20:30 -0.96886 105.33086 28271 ft 470 kts 145°
2026-04-15 20:31 -0.99594 105.34918 28539 ft 469 kts 145°
2026-04-15 20:31 -1.02289 105.36741 28863 ft 467 kts 145°
2026-04-15 20:31 -1.04980 105.38561 29168 ft 466 kts 145°
2026-04-15 20:31 -1.07662 105.40376 29435 ft 465 kts 145°
2026-04-15 20:32 -1.10344 105.42191 29706 ft 465 kts 144°
2026-04-15 20:32 -1.12980 105.43975 29998 ft 464 kts 144°
2026-04-15 20:32 -1.15647 105.45779 30276 ft 462 kts 144°
2026-04-15 20:32 -1.18306 105.47578 30495 ft 462 kts 144°
2026-04-15 20:33 -1.20969 105.49380 30701 ft 462 kts 144°
2026-04-15 20:33 -1.23637 105.51185 30934 ft 462 kts 144°
2026-04-15 20:33 -1.26296 105.52985 31193 ft 461 kts 144°
2026-04-15 20:33 -1.28947 105.54778 31442 ft 461 kts 145°
2026-04-15 20:34 -1.31601 105.56575 31674 ft 460 kts 145°
2026-04-15 20:34 -1.34254 105.58370 31923 ft 460 kts 145°
2026-04-15 20:34 -1.36906 105.60165 32167 ft 460 kts 145°
2026-04-15 20:34 -1.39552 105.61956 32414 ft 459 kts 145°
2026-04-15 20:35 -1.42164 105.63724 32666 ft 459 kts 145°
2026-04-15 20:35 -1.44839 105.65534 32857 ft 457 kts 145°
2026-04-15 20:35 -1.47012 105.67005 32835 ft 458 kts 145°
2026-04-15 20:36 -1.52245 105.70547 32842 ft 456 kts 144°
2026-04-15 20:36 -1.57493 105.74099 32862 ft 455 kts 144°
2026-04-15 20:37 -1.62732 105.77646 32866 ft 454 kts 144°
2026-04-15 20:37 -1.67957 105.81183 32865 ft 453 kts 144°
2026-04-15 20:38 -1.73179 105.84719 32856 ft 453 kts 144°
2026-04-15 20:38 -1.78364 105.88230 32861 ft 453 kts 144°
2026-04-15 20:39 -1.83592 105.91771 32862 ft 454 kts 144°
2026-04-15 20:39 -1.88818 105.95310 32853 ft 454 kts 144°
2026-04-15 20:40 -1.94054 105.98856 32852 ft 454 kts 144°
2026-04-15 20:40 -1.99281 106.02396 32853 ft 454 kts 144°
2026-04-15 20:41 -2.04518 106.05944 32856 ft 455 kts 144°
2026-04-15 20:41 -2.09731 106.09477 32864 ft 455 kts 144°
2026-04-15 20:42 -2.15044 106.12935 32845 ft 457 kts 152°
2026-04-15 20:42 -2.21039 106.15064 32853 ft 460 kts 167°
2026-04-15 20:43 -2.27362 106.16127 32856 ft 461 kts 169°
2026-04-15 20:43 -2.33669 106.17137 32865 ft 462 kts 169°
2026-04-15 20:44 -2.40022 106.18194 32869 ft 462 kts 168°
2026-04-15 20:44 -2.46364 106.19275 32859 ft 463 kts 168°
2026-04-15 20:45 -2.52707 106.20364 32865 ft 463 kts 168°
2026-04-15 20:45 -2.59057 106.21454 32874 ft 462 kts 168°
2026-04-15 20:46 -2.65398 106.22541 32869 ft 462 kts 168°
2026-04-15 20:46 -2.71723 106.23630 32861 ft 461 kts 168°
2026-04-15 20:47 -2.78036 106.24725 32872 ft 460 kts 168°
2026-04-15 20:47 -2.84334 106.25804 32860 ft 459 kts 168°
2026-04-15 20:48 -2.90628 106.26880 32862 ft 458 kts 168°
2026-04-15 20:48 -2.96864 106.27949 32859 ft 457 kts 168°
2026-04-15 20:49 -3.03135 106.29024 32860 ft 457 kts 168°
2026-04-15 20:49 -3.09402 106.30098 32869 ft 456 kts 168°
2026-04-15 20:50 -3.15662 106.31172 32870 ft 457 kts 168°
2026-04-15 20:50 -3.21935 106.32250 32865 ft 457 kts 168°
2026-04-15 20:51 -3.28211 106.33328 32863 ft 458 kts 168°
2026-04-15 20:51 -3.34492 106.34405 32878 ft 458 kts 168°
2026-04-15 20:52 -3.40750 106.35475 32869 ft 459 kts 169°
2026-04-15 20:52 -3.47051 106.36541 32875 ft 460 kts 169°
2026-04-15 20:53 -3.53362 106.37628 32868 ft 460 kts 169°
2026-04-15 20:53 -3.59676 106.38715 32870 ft 461 kts 169°
2026-04-15 20:54 -3.66000 106.39824 32876 ft 461 kts 168°
2026-04-15 20:54 -3.72308 106.41005 32877 ft 461 kts 168°
2026-04-15 20:55 -3.78620 106.42198 32877 ft 461 kts 168°
2026-04-15 20:55 -3.84937 106.43382 32880 ft 462 kts 168°
2026-04-15 20:56 -3.91254 106.44562 32879 ft 462 kts 168°
2026-04-15 20:56 -3.97527 106.45732 32872 ft 462 kts 168°
2026-04-15 20:57 -4.03849 106.46911 32875 ft 462 kts 168°
2026-04-15 20:57 -4.10162 106.48090 32878 ft 462 kts 168°
2026-04-15 20:58 -4.16478 106.49269 32874 ft 462 kts 168°
2026-04-15 20:58 -4.22799 106.50449 32876 ft 462 kts 168°
2026-04-15 20:59 -4.29118 106.51629 32881 ft 462 kts 168°
2026-04-15 20:59 -4.35434 106.52809 32877 ft 462 kts 168°
2026-04-15 21:00 -4.41750 106.53989 32881 ft 462 kts 168°
2026-04-15 21:00 -4.48066 106.55169 32883 ft 461 kts 168°
2026-04-15 21:01 -4.54390 106.56351 32886 ft 461 kts 168°
2026-04-15 21:01 -4.60665 106.57524 32883 ft 461 kts 168°
2026-04-15 21:02 -4.66976 106.58704 32878 ft 461 kts 168°
2026-04-15 21:02 -4.73293 106.59885 32881 ft 461 kts 168°
2026-04-15 21:03 -4.79622 106.61069 32330 ft 468 kts 168°
2026-04-15 21:03 -4.82814 106.61666 31718 ft 466 kts 168°
2026-04-15 21:03 -4.85999 106.62285 31018 ft 465 kts 165°
2026-04-15 21:03 -4.89033 106.63365 30483 ft 460 kts 154°
2026-04-15 21:04 -4.91917 106.64718 29962 ft 456 kts 153°
2026-04-15 21:04 -4.94763 106.66100 29394 ft 452 kts 153°
2026-04-15 21:04 -4.97581 106.67460 28835 ft 447 kts 153°
2026-04-15 21:04 -5.00383 106.68785 28310 ft 443 kts 153°
2026-04-15 21:05 -5.03165 106.70077 27790 ft 438 kts 154°
2026-04-15 21:05 -5.05885 106.71327 27292 ft 434 kts 154°
2026-04-15 21:05 -5.08624 106.72581 26794 ft 431 kts 154°
2026-04-15 21:05 -5.11338 106.73824 26294 ft 427 kts 154°
2026-04-15 21:06 -5.14032 106.75058 25879 ft 422 kts 154°
2026-04-15 21:06 -5.16670 106.76268 25722 ft 411 kts 154°
2026-04-15 21:06 -5.19256 106.77450 25294 ft 408 kts 154°
2026-04-15 21:06 -5.21834 106.78618 24858 ft 405 kts 154°
2026-04-15 21:07 -5.24399 106.79778 24393 ft 404 kts 154°
2026-04-15 21:07 -5.26964 106.80937 23927 ft 402 kts 154°
2026-04-15 21:07 -5.29510 106.82088 23481 ft 401 kts 154°
2026-04-15 21:07 -5.32055 106.83240 22947 ft 400 kts 154°
2026-04-15 21:08 -5.34579 106.84384 22482 ft 397 kts 154°
2026-04-15 21:08 -5.37083 106.85519 22024 ft 394 kts 154°
2026-04-15 21:08 -5.39572 106.86647 21571 ft 391 kts 154°
2026-04-15 21:08 -5.42040 106.87766 21194 ft 386 kts 154°
2026-04-15 21:09 -5.44458 106.88859 21059 ft 376 kts 155°
2026-04-15 21:09 -5.46943 106.89532 20851 ft 369 kts 175°
2026-04-15 21:09 -5.49467 106.89356 20425 ft 371 kts 193°
2026-04-15 21:09 -5.51912 106.88527 19996 ft 371 kts 200°
2026-04-15 21:10 -5.54322 106.87585 19499 ft 373 kts 200°
2026-04-15 21:10 -5.56740 106.86617 19009 ft 375 kts 201°
2026-04-15 21:10 -5.59177 106.85645 18520 ft 376 kts 201°
2026-04-15 21:10 -5.61619 106.84682 17989 ft 378 kts 200°
2026-04-15 21:11 -5.64071 106.83725 17457 ft 378 kts 200°
2026-04-15 21:11 -5.66524 106.82773 16951 ft 377 kts 200°
2026-04-15 21:11 -5.68973 106.81827 16459 ft 377 kts 200°
2026-04-15 21:11 -5.71418 106.80884 15965 ft 376 kts 200°
2026-04-15 21:12 -5.73824 106.79956 15478 ft 375 kts 200°
2026-04-15 21:12 -5.76287 106.79006 14990 ft 374 kts 200°
2026-04-15 21:12 -5.78717 106.78068 14488 ft 374 kts 200°
2026-04-15 21:12 -5.81116 106.77143 14000 ft 373 kts 200°
2026-04-15 21:13 -5.83539 106.76208 13472 ft 373 kts 201°
2026-04-15 21:13 -5.85795 106.74958 12914 ft 372 kts 221°
2026-04-15 21:13 -5.87455 106.73002 12493 ft 367 kts 240°
2026-04-15 21:13 -5.88501 106.70686 12142 ft 361 kts 248°
2026-04-15 21:14 -5.89403 106.68348 11767 ft 356 kts 249°
2026-04-15 21:14 -5.90285 106.66037 11370 ft 353 kts 249°
2026-04-15 21:14 -5.91174 106.63753 10975 ft 349 kts 249°
2026-04-15 21:14 -5.92068 106.61499 10581 ft 346 kts 248°
2026-04-15 21:15 -5.92671 106.59987 10317 ft 344 kts 248°
2026-04-15 21:15 -5.93552 106.57790 9977 ft 340 kts 248°
2026-04-15 21:15 -5.94428 106.55634 9956 ft 325 kts 248°
2026-04-15 21:15 -5.95269 106.53577 9935 ft 312 kts 248°
2026-04-15 21:16 -5.96078 106.51598 9883 ft 300 kts 248°
2026-04-15 21:16 -5.96855 106.49696 9813 ft 289 kts 248°
2026-04-15 21:16 -5.97605 106.47858 9714 ft 281 kts 248°
2026-04-15 21:16 -5.98342 106.46050 9445 ft 279 kts 248°
2026-04-15 21:17 -5.99077 106.44244 9132 ft 278 kts 248°
2026-04-15 21:17 -5.99807 106.42452 8846 ft 277 kts 248°
2026-04-15 21:17 -6.00534 106.40668 8577 ft 275 kts 248°
2026-04-15 21:17 -6.01254 106.38899 8339 ft 272 kts 248°
2026-04-15 21:18 -6.01965 106.37155 8151 ft 267 kts 248°
2026-04-15 21:18 -6.02658 106.35453 8073 ft 258 kts 248°
2026-04-15 21:18 -6.03330 106.33813 7997 ft 249 kts 245°
2026-04-15 21:18 -6.04353 106.32458 7822 ft 243 kts 215°
2026-04-15 21:19 -6.05871 106.31825 7611 ft 240 kts 189°
2026-04-15 21:19 -6.07541 106.31839 7337 ft 241 kts 172°
2026-04-15 21:19 -6.09213 106.32127 7085 ft 240 kts 170°
2026-04-15 21:19 -6.10833 106.32439 6840 ft 240 kts 170°
2026-04-15 21:20 -6.12472 106.32749 6606 ft 239 kts 170°
2026-04-15 21:20 -6.14105 106.33048 6370 ft 238 kts 171°
2026-04-15 21:20 -6.15731 106.33340 6125 ft 237 kts 171°
2026-04-15 21:20 -6.17351 106.33628 5873 ft 236 kts 171°
2026-04-15 21:21 -6.18969 106.33914 5627 ft 235 kts 171°
2026-04-15 21:21 -6.20493 106.34474 5336 ft 237 kts 141°
2026-04-15 21:21 -6.21518 106.35749 5095 ft 234 kts 121°
2026-04-15 21:21 -6.22369 106.37138 4848 ft 234 kts 121°
2026-04-15 21:22 -6.23224 106.38524 4598 ft 233 kts 121°
2026-04-15 21:22 -6.23859 106.40001 4315 ft 232 kts 94°
2026-04-15 21:22 -6.23506 106.41536 4135 ft 223 kts 64°
2026-04-15 21:22 -6.22866 106.42941 3910 ft 217 kts 66°
2026-04-15 21:23 -6.22279 106.44301 3737 ft 208 kts 66°
2026-04-15 21:23 -6.21733 106.45612 3568 ft 199 kts 67°
2026-04-15 21:23 -6.21228 106.46880 3385 ft 191 kts 68°
2026-04-15 21:23 -6.20745 106.48097 3229 ft 184 kts 68°
2026-04-15 21:24 -6.20275 106.49274 3127 ft 186 kts 68°
2026-04-15 21:24 -6.19780 106.50513 2952 ft 191 kts 68°
2026-04-15 21:24 -6.19285 106.51754 2706 ft 191 kts 68°
2026-04-15 21:24 -6.18801 106.52969 2452 ft 189 kts 68°
2026-04-15 21:25 -6.18326 106.54159 2207 ft 181 kts 68°
2026-04-15 21:25 -6.17860 106.55329 1974 ft 180 kts 68°
2026-04-15 21:25 -6.17390 106.56507 1737 ft 182 kts 68°
2026-04-15 21:25 -6.16919 106.57688 1487 ft 181 kts 68°
2026-04-15 21:26 -6.16456 106.58848 1245 ft 177 kts 68°
2026-04-15 21:26 -6.16017 106.59950 1001 ft 162 kts 69°
2026-04-15 21:26 -6.15625 106.60931 829 ft 144 kts 69°
2026-04-15 21:26 -6.15269 106.61827 641 ft 134 kts 69°
2026-04-15 21:27 -6.14930 106.62677 473 ft 131 kts 69°
2026-04-15 21:27 -6.14584 106.63545 303 ft 136 kts 69°
2026-04-15 21:27 -6.14232 106.64426 94 ft 135 kts 68°
2026-04-15 21:27 -6.13894 106.65256 40 ft 111 kts 68°
2026-04-15 21:28 -6.13686 106.65788 36 ft 43 kts 66°
2026-04-15 21:28 -6.13576 106.66059 35 ft 37 kts 67°
2026-04-15 21:28 -6.13469 106.66217 39 ft 24 kts 43°
2026-04-15 21:28 -6.13365 106.66298 38 ft 9 kts 21°
2026-04-15 21:29 -6.13307 106.66285 39 ft 9 kts 309°
2026-04-15 21:29 -6.13319 106.66224 38 ft 9 kts 252°
2026-04-15 21:29 -6.13340 106.66166 35 ft 9 kts 249°
2026-04-15 21:29 -6.13362 106.66109 37 ft 9 kts 248°
2026-04-15 21:30 -6.13395 106.66023 35 ft 19 kts 252°
2026-04-15 21:30 -6.13442 106.65893 31 ft 13 kts 262°
2026-04-15 21:30 -6.13369 106.65828 35 ft 18 kts 340°
2026-04-15 21:30 -6.13219 106.65823 37 ft 26 kts
2026-04-15 21:31 -6.13097 106.65798 37 ft 0 kts 299°